"Pseudo-MPEC" for C0E7105

Created 2022 Nov 26 22:22:05 UT using Find_Orb

Click here for an explanation of pseudo-MPECs

 
 Astrometry: 
     C0E7105*HC2022 11 231Y$%(W9bPtErIlf@\GG3+Sy);'`e+rDdQMujS]t(]lQO3Lf4sy?xV00
     C0E7105 HC2022 11 23HBS)\4.cR_j'OC?I%p1+]7qKdKjk#l3Vuouc$8p=Astrometry(wV00
     C0E7105 HC2022 11 23G%pJ_rtpX1-)\qredacted;Tb2rOhGy=eW/[tk2AK)F0U@3Rgq48V00
     C0E7105 HC2022 11 23K;U]g*5]w:-55xG0#*V3`QmM)ZDqMJ2(aTfAiJclick?CdXSXY\dV00
     C0E7105 KC2022 11 23.49016 07 16 13.64 +33 16 56.6    ~BNCq 22.0 RoNEOCP291
     C0E7105 KC2022 11 23.50138 07 16 14.43 +33 17 04.3    ~BNCq 22.2 RoNEOCP291
     C0E7105 KC2022 11 23.51258 07 16 15.15 +33 17 11.8    ~BNCq 22.4 RoNEOCP291
     C0E7105 KC2022 11 24.35433 07 17 18.61 +33 27 03.8    ~BOA7 22.0 GVNEOCP291
     C0E7105 KC2022 11 24.36707 07 17 19.37 +33 27 13.0    ~BOA7 22.2 GVNEOCP291
     C0E7105 KC2022 11 24.37988 07 17 20.16 +33 27 22.4    ~BOA7 22.4 GVNEOCP291
     C0E7105 KC2022 11 26.31223907 19 28.852+33 49 39.72   ~BQ87 21.83GVNEOCPV06
     C0E7105 KC2022 11 26.31780107 19 29.158+33 49 43.90   ~BQ87 22.40GVNEOCPV06
     C0E7105 KC2022 11 26.32336207 19 29.464+33 49 48.04   ~BQ87 22.03GVNEOCPV06
     C0E7105 KC2022 11 26.32892607 19 29.773+33 49 51.96   ~BQ87 22.25GVNEOCPV06
     C0E7105 KC2022 11 26Nohere$%=+bwPZ$TF,os7Cw0@a6xoHXg*v;Tuq+7H5qMCrY9L,*JH21
     C0E7105 KC2022 11 26):jE*C:RU[7QvkQKb\c0L4]o`q.3#8]a,',forjJC%[401%a7gxQH21
     C0E7105 KC2022 11 26Jhi?O`(b=ty$[ZdK+dHdy\u1a6H(448j#2?=:[ZexplanationhZH21

Station data:
(291) LPL/Spacewatch II  (N31.961669 W111.599905)  US/Arizona.  Observers J.
   V. Scotti, R. S. McMillan. 1.8-m f/2.7 reflector + CCD.
(H21) Astronomical Research Observatory, Westfield  (N39.483054 W87.968270)
   US/Illinois.  Observer R. Holmes. Measurers S. Foglia, L. Buzzi, T.
   Linder, R. Holmes. 0.76-m f/3.0 astrograph + CCD0.81-m f/4.0 astrograph +
   CCD0.61-m f/4.5 astrograph + CCD0.40-m f/5.32 astrograph + CCD.
(V00) Kitt Peak-Bok  (N31.963125 W111.600190)  US/Arizona.  Observers T. A.
   Pruyne, B. M. Africano, E. J. Christensen, G. A. Farneth, D. C. Fuls, A.
   R. Gibbs, A. D. Grauer, H. Gröller, J. A. Johnson, R. A. Kowalski, S. M.
   Larson, G. J. Leonard, D. Rankin, R. L. Seaman, F. C. Shelly, K. W.
   Wierzchoś. 2.25-m reflector + CCD.
(V06) Catalina Sky Survey-Kuiper  (N32.416844 W110.732550)  US/Arizona.
   Observers T. A. Pruyne, B. M. Africano, E. J. Christensen, G. A. Farneth,
   D. C. Fuls, A. R. Gibbs, A. D. Grauer, H. Gröller, J. A. Johnson, R. A.
   Kowalski, S. M. Larson, G. J. Leonard, D. Rankin, R. L. Seaman, F. C.
   Shelly, K. W. Wierzchoś. 1.55-m reflector + CCD.

Orbital elements:  C0E7105
   Perihelion 2022 Oct 27.22086 +/- 0.255 TT =  5:18:02 (JD 2459879.72086)
Epoch 2022 Nov 26.0 TT = JDT 2459909.5   Earth MOID: 0.2333   Ma: 0.0393
M   8.71057627 +/- 0.24             (J2000 ecliptic)          AutoNEOCP
n   0.29250597 +/- 0.0108           Peri.   13.52759 +/- 0.48
a   2.24756825 +/- 0.0553           Node    35.12522 +/- 0.30
e   0.4558717 +/- 0.0127            Incl.    5.02417 +/- 0.06
P   3.37                   H 22.9   G  0.15   U  9.7
q 1.22296549 +/- 0.0023    Q 3.27217101 +/- 0.109
From 17 observations 2022 Nov. 23-26; mean residual 0".18
Residuals in arcseconds: 
221123 V00  .18-  .14+    221123 291  .13+  .02+    221126 V06  .04+  .01+    
221123 V00  .33-  .47-    221124 291  .25+  .06+    221126 V06  .22+  .14-    
221123 V00  .25+  .13+    221124 291  .10-  .11-    221126 H21  .11+  .06-    
221123 V00  .07+  .14+    221124 291  .06-  .06-    221126 H21  .18-  .30+    
221123 291  .32-  .04+    221126 V06  .19-  .14-    221126 H21  .06+  .06+    
221123 291  .35+  .09+    221126 V06  .09-  .05-    

Ephemerides (geocentric):
Date (UTC) HH   RA             Dec           delta  r     elong  mag " sig PA
---- --------  ------------   ------------  ------ ------ -----  --- --------
2022 11 26 22  07 20 03.907   +33 56 35.52  .35156 1.2642 136.2 22.5 .270 144
2022 11 26 23  07 20 06.335   +33 57 03.89  .35157 1.2643 136.2 22.5 .286 145
2022 11 27 00  07 20 08.754   +33 57 32.25  .35159 1.2644 136.2 22.5 .302 146
2022 11 27 01  07 20 11.164   +33 58 00.59  .35160 1.2646 136.3 22.5 .319 147
2022 11 27 02  07 20 13.566   +33 58 28.92  .35162 1.2647 136.3 22.5 .336 147
2022 11 27 03  07 20 15.959   +33 58 57.23  .35163 1.2648 136.3 22.5 .353 148
2022 11 27 04  07 20 18.343   +33 59 25.53  .35165 1.2649 136.4 22.5 .370 149
2022 11 27 05  07 20 20.718   +33 59 53.82  .35166 1.2650 136.4 22.5 .388 149
2022 11 27 06  07 20 23.085   +34 00 22.09  .35168 1.2651 136.4 22.5 .406 150
2022 11 27 07  07 20 25.443   +34 00 50.34  .35169 1.2652 136.5 22.5 .425 150
2022 11 27 08  07 20 27.792   +34 01 18.58  .35171 1.2653 136.5 22.5 .444 151
2022 11 27 09  07 20 30.132   +34 01 46.81  .35173 1.2654 136.5 22.5 .463 151
2022 11 27 10  07 20 32.464   +34 02 15.02  .35174 1.2655 136.6 22.5 .483 151
2022 11 27 11  07 20 34.786   +34 02 43.22  .35176 1.2657 136.6 22.5 .503 152
2022 11 27 12  07 20 37.101   +34 03 11.40  .35178 1.2658 136.6 22.5 .523 152
2022 11 27 13  07 20 39.406   +34 03 39.57  .35179 1.2659 136.7 22.5 .544 152
2022 11 27 14  07 20 41.703   +34 04 07.72  .35181 1.2660 136.7 22.5 .565 152
2022 11 27 15  07 20 43.990   +34 04 35.86  .35183 1.2661 136.7 22.5 .586 153
2022 11 27 16  07 20 46.270   +34 05 03.98  .35184 1.2662 136.7 22.5 .608 153
2022 11 27 17  07 20 48.540   +34 05 32.09  .35186 1.2663 136.8 22.5 .630 153
2022 11 27 18  07 20 50.802   +34 06 00.18  .35188 1.2664 136.8 22.5 .652 153
2022 11 27 19  07 20 53.055   +34 06 28.26  .35189 1.2665 136.8 22.5 .675 154
2022 11 27 20  07 20 55.299   +34 06 56.33  .35191 1.2667 136.9 22.5 .698 154
2022 11 27 21  07 20 57.534   +34 07 24.37  .35193 1.2668 136.9 22.5 .722 154
2022 11 27 22  07 20 59.761   +34 07 52.41  .35195 1.2669 136.9 22.5 .745 154
2022 11 27 23  07 21 01.979   +34 08 20.42  .35197 1.2670 137.0 22.5 .769 154
2022 11 28 00  07 21 04.188   +34 08 48.43  .35198 1.2671 137.0 22.5 .794 154
2022 11 28 01  07 21 06.389   +34 09 16.41  .35200 1.2672 137.0 22.5 .818 154
2022 11 28 02  07 21 08.581   +34 09 44.38  .35202 1.2673 137.1 22.5 .843 154
2022 11 28 03  07 21 10.764   +34 10 12.34  .35204 1.2674 137.1 22.5 .869 155
2022 11 28 04  07 21 12.939   +34 10 40.28  .35206 1.2676 137.1 22.5 .894 155
2022 11 28 05  07 21 15.104   +34 11 08.21  .35208 1.2677 137.2 22.5 .920 155
2022 11 28 06  07 21 17.261   +34 11 36.12  .35210 1.2678 137.2 22.5 .947 155
2022 11 28 07  07 21 19.410   +34 12 04.01  .35211 1.2679 137.2 22.5 .973 155
2022 11 28 08  07 21 21.549   +34 12 31.89  .35213 1.2680 137.3 22.5 1.00 155
2022 11 28 09  07 21 23.680   +34 12 59.76  .35215 1.2681 137.3 22.5 1.03 155
2022 11 28 10  07 21 25.802   +34 13 27.60  .35217 1.2682 137.3 22.5 1.06 155
2022 11 28 11  07 21 27.916   +34 13 55.44  .35219 1.2683 137.4 22.5 1.08 155
2022 11 28 12  07 21 30.021   +34 14 23.25  .35221 1.2685 137.4 22.5 1.11 155
2022 11 28 13  07 21 32.117   +34 14 51.05  .35223 1.2686 137.4 22.5 1.14 155
2022 11 28 14  07 21 34.204   +34 15 18.84  .35225 1.2687 137.5 22.5 1.17 155
2022 11 28 15  07 21 36.283   +34 15 46.61  .35227 1.2688 137.5 22.5 1.20 155
2022 11 28 16  07 21 38.353   +34 16 14.36  .35229 1.2689 137.5 22.5 1.23 155
2022 11 28 17  07 21 40.414   +34 16 42.10  .35231 1.2690 137.5 22.5 1.26 155
2022 11 28 18  07 21 42.467   +34 17 09.82  .35233 1.2691 137.6 22.5 1.29 155
2022 11 28 19  07 21 44.511   +34 17 37.53  .35235 1.2693 137.6 22.5 1.32 155
2022 11 28 20  07 21 46.546   +34 18 05.22  .35237 1.2694 137.6 22.5 1.35 155
2022 11 28 21  07 21 48.573   +34 18 32.89  .35239 1.2695 137.7 22.5 1.38 155